Vorticity
10 22 18 19 16 11 8 8 7 6 9 8 8 7 7 6 6 6 7 7 8 7
3 8 14 21 19 12 8 8 8 8 9 8 8 8 7 7 7 7 8 7 8 9
13 8 9 10 19 15 13 10 10 11 11 10 9 8 8 8 8 7 9 10 10 7
8 10 8 7 10 13 12 10 8 10 9 7 6 10 6 1 12 7 -5 1 4 12
15 14 11 9 9 11 12 11 10 13 12 8 10 4 12 19 5 -1 6 12 6 14
9 17 23 14 15 10 10 8 11 12 8 10 9 13 0 1 8 12 6 -1 7 13
4 8 23 22 14 24 13 6 10 13 10 10 2 4 9 19 12 4 -10 35 10 12
8 9 9 13 25 20 15 9 11 10 10 2 11 9 19 -3 20 -3 35 8 13 12
12 11 8 13 9 22 17 21 19 9 8 15 2 15 3 -3 12 12 10 12 12 11
45 16 17 17 9 17 29 24 27 5 13 12 18 18 -6 9 28 7 11 12 11 11
40 21 4 5 20 8 14 27 26 29 11 24 15 -0 4 31 11 4 8 13 11 10
41 10 11 8 7 13 16 23 19 8 18 4 1 12 43 21 4 5 12 12 10 9
31 4 25 26 4 32 28 11 16 17 9 10 18 44 18 0 9 8 8 12 9 9
19 18 25 28 24 20 17 15 13 12 14 20 29 15 7 6 4 10 9 9 9 9
Height
3079 3076 3072 3076 3079 3082 3084 3086 3087 3088 3090 3090 3091 3091 3091 3091 3091 3091 3092 3093 3093 3092
3072 3070 3068 3066 3068 3069 3072 3076 3078 3080 3081 3082 3082 3084 3084 3084 3084 3084 3084 3085 3086 3085
3065 3062 3060 3058 3058 3059 3063 3067 3069 3072 3073 3074 3075 3075 3075 3077 3076 3077 3076 3076 3078 3077
3056 3054 3052 3049 3048 3049 3052 3056 3057 3061 3063 3064 3066 3067 3066 3068 3068 3068 3066 3068 3071 3071
3046 3045 3043 3041 3039 3039 3043 3046 3048 3050 3052 3054 3056 3058 3058 3059 3059 3059 3059 3058 3064 3064
3034 3033 3034 3032 3030 3030 3033 3035 3037 3040 3043 3044 3046 3049 3049 3048 3050 3051 3050 3050 3056 3056
3025 3022 3023 3022 3020 3023 3021 3024 3027 3031 3034 3036 3036 3037 3039 3040 3043 3044 3042 3046 3049 3048
3013 3010 3010 3012 3010 3010 3011 3013 3016 3018 3021 3023 3024 3027 3032 3034 3035 3035 3035 3040 3041 3041
3001 3001 3001 3001 3000 3000 3000 2999 3003 3006 3009 3012 3017 3024 3026 3026 3027 3026 3031 3033 3035 3035
2992 2990 2991 2990 2991 2992 2992 2994 2992 2999 3003 3009 3012 3015 3017 3018 3019 3021 3026 3028 3029 3029
2982 2981 2982 2982 2984 2984 2985 2986 2989 2993 2999 3001 3003 3006 3009 3010 3013 3017 3021 3024 3024 3024
2975 2974 2975 2976 2977 2978 2979 2979 2982 2986 2990 2995 2997 2999 3002 3004 3008 3011 3015 3018 3019 3019
2972 2969 2970 2971 2971 2970 2971 2974 2979 2983 2985 2987 2990 2994 2996 3000 3004 3007 3011 3014 3014 3013
2971 2965 2966 2966 2966 2966 2968 2971 2976 2979 2981 2983 2987 2988 2991 2997 3001 3004 3007 3008 3008 3009